Погода в Олекминске

Погода в Олекминске : погода сейчас, прогноз погоды и архив. Всё, что Вы хотите узнать о погоде в Олекминске!

Хотите узнать прогноз погоды в Олекминске? Тогда Вам сюда: Погода в Олекминске

Поиск расширенной информации на нашем сайте:

Другие новости

Новости СМИ2

Главная страница сайта

Новости сайта

02.10.2013

Напоминаем, что на нашем новом сайте вы можете получить высокодетализированные прогнозы погоды по пунктам России, СНГ и мира (включающие важные для авиации метеовеличины, такие как направление и скорость ветра, видимость, явления погоды, количество и форма облачности, нижняя и верхняя граница облачности), а также ознакомиться с разнообразными материалами по авиационной метеорологии и подборкой полезных ссылок на эту тему.

Сайт Метеоцентр.Азия посвящён разработке технологий оптимизации авиаметеорологического обслуживания, включая проектирование и перспективное создание нескольких автоматизированных авиаметеорологических систем:
- система выпуска высокодетальных прогностических карт явлений погоды для нижнего воздушного пространства по России и ближнему зарубежью;
- система верификации прогнозов TAF (выпускаемых синоптиками официальных АМСГ РФ и ближнего зарубежья) и AUTOTAF (выпускаемых сайтом Метеоцентр.Азия) - выявление ошибок, онлайн-сопоставление с фактической погодой METAR, автоматическое внесение коррективов в прогнозы при резком отклонении фактической погоды от прогноза, подсчёт оправдываемости прогнозов по элементам и в целом;
- система обработки, анализа и отображения авиаметеорологической информации для применения провайдерами метеорологической информации.

Рекомендуем: ремонт iphone 3gs

Погода в Олекминске - сегодня

Время (UTC), дата Ветер
(°,м/с) 
Видим.   Явления Облачность Т
(°С)
Тd
(°С)
f(%) Тe
(°С)
Pmin
(гПа)
dP
(гПа)
Po
(мм)
O2
(г/м3)
Тmin Tmax R s Состояние
почвы
06 20.01.17 250 (З) 20000 м  {снег}  10/0 верхняя 
[Ci fib]
-31.3 -33 85 -35  1033.4  1.1  750  343           
09 20.01.17 тихо ()   20000 м    10/0 верхняя 
[Ci fib]
-34.5 -36.2 84 -35  1035.7  1.8  752  349           
12 20.01.17 тихо ()   20000 м    10/0 средняя, верхняя 
[Ac trans|Ci fib]
-35.5 -37.1 85 -36  1037.1  1.2  753  351    -30.6  0.0     
15 20.01.17 250 (З) 20000 м    10/0 средняя, верхняя 
[Ac trans|Ci fib]
-35.6 -37.1 86 -37  1037.8  0.7  753  351           
18 20.01.17 240 (ЮЗ) 20000 м    10/0 средняя, верхняя 
[Ac trans|Ci fib]
-35.9 -37.5 85 -42  1038.7  0.9  754  352           
21 20.01.17 240 (ЮЗ) 20000 м    10/0 средняя, верхняя 
[Ac trans|Ci fib]
-35.1 -36.8 84 -41  1039  0.3  754  351           
00 21.01.17 250 (З) 20000 м    10/0 верхняя 
[Ci fib]
-37.5 -39.9 78 -39  1038.9  -0.4  754  354  -37.9      45  равномерный
сухой снег
100% 
03 21.01.17 240 (ЮЗ) 20000 м    10/0 верхняя 
[Ci fib]
-33.8 -36.2 79 -38  1037.5  -0.8  753  348           
06 21.01.17 250 (З) 10 км    10/0 средняя, верхняя 
[Ac trans|Cs]
-29.6 -31.3 85 -33  1035.7  -1.3  752  342           
09 21.01.17 240 (ЮЗ) 10 км  слаб. снег  10/0 средняя, верхняя 
[Ac trans|Cs]
-28.5 -30.4 84 -32  1035.3  -0.4  752  340           
12 21.01.17 250 (З) 10 км  слаб. снег  10/0 средняя, верхняя 
[Ac trans|Cs]
-26.3 -28 85 -30  1034.5  -0.3  752  337    -25.8  0.1     
15 21.01.17 240 (ЮЗ) 10 км  слаб. снег  10/0 средняя, верхняя 
[Ac trans|Cs]
-25.1 -26.9 85 -28  1033.8  -0.5  751  335           
18 21.01.17 240 (ЮЗ) 10 км  слаб. снег  10/0 средняя 
[As op]
-24.2 -25.4 90 -29  1033.5  -0.3  751  334           
21 21.01.17 230 (ЮЗ) 10 км  слаб. снег  10/0 средняя 
[As op]
-23.1 -24.4 89 -26  1032.7  -0.5  751  332           
00 22.01.17 240 (ЮЗ) 4000 м  слаб. снег  10/0 средняя 
[As op]
-21.8 -23.6 85 -25  1032.9  0.4  751  331  -26.3    0.2  45  равномерный
сухой снег
100% 
03 22.01.17 230 (ЮЗ) 4000 м  слаб. снег  10/0 средняя 
[As op]
-20.1 -22 85 -23  1032.6  -0.3  751  328           
06 22.01.17 230 (ЮЗ) 4000 м  слаб. снег  10/0 средняя, верхняя 
[Ac trans|Cs]
-19.7 -20.9 90 -20  1031.5  -0.8  750  327           
09 22.01.17 тихо ()   20000 м  {снег}  8/0 верхняя 
[Ci fib]
-23.5 -24.7 90 -24  1030.9  -1.1  749  332           
12 22.01.17 250 (З) 20000 м  {снег}  8/0 верхняя 
[Ci fib]
-25.5 -26.7 90 -29  1029.6  -1.6  748  334    -18.9  0.3     
15 22.01.17 250 (З) 20000 м    8/0 верхняя 
[Ci fib]
-26.9 -28.7 85 -28  1028.6  -1.1  747  336           
18 22.01.17 270 (З) 20000 м    10/0 верхняя 
[Ci fib]
-24.5 -26.4 84 -25  1026.4  -1.9  746  332           
21 22.01.17 260 (З) 20000 м  слаб. снег  10/0 средняя, верхняя 
[Ac trans|Cs]
-21.5 -22.7 90 -24  1024.6  -1.3  745  327           
00 23.01.17 230 (ЮЗ) 4000 м  слаб. снег  10/0 средняя 
[As op]
-20 -21.2 90 -23  1023.2  -1  744  325  -27.5    0.3  45  равномерный
сухой снег
100% 
03 23.01.17 240 (ЮЗ) 4000 м  слаб. снег  10/0 средняя 
[As op]
-17 -18.2 90 -21  1022.1  -0.8  744  321           
06 23.01.17 230 (ЮЗ) 4000 м  слаб. снег  10/3 600 м средняя, верхняя 
[Sc|Ac trans|Cs]
-15.1 -16.4 90 -19  1021.7  -0.2  743  318           
Время (UTC), дата Ветер
(°,м/с) 
Видим.   Явления Облачность Т
(°С)
Тd
(°С)
f(%) Тe
(°С)
Pmin
(гПа)
dP
(гПа)
Po
(мм)
O2
(г/м3)
Тmin Tmax R s Состояние
почвы

Для получения пояснительной информации подведите курсор к названию столбца.

ПОГОДА в Олекминске - архив

Всё, что Вы хотите узнать о погоде в Олекминске - удобно и подробно!

Выберите нужную дату (начиная с 1 января 2015* года) и нажмите кнопку "Найти".
Будут отображены архивные сводки погоды по пункту Олекминск, начиная с указанной даты.


Отображать данные в формате CSV (для использования в таблицах Excel)


Внимание! Наш архив погоды предназначен исключительно для личного некоммерческого использования в познавательных целях. Если Вам необходимы официальные справки о состоянии погоды (для производственных, юридических, коммерческих и т.п. целей), обращайтесь в органы Росгидромета.

*Примечание: данная дата относится к архиву по метеостанциям СССР (Россия, СНГ, Балтия).
Архив по метеостанциям Зарубежной Европы и Азии (кроме Китая) хранится 10 дней, по другим регионам земного шара (Китай, Африка, Америка, Австралия, Океания) - 1 день.

Олекминск - район местоположения метеостанции


Название, широта, долгота, высота метеостанции:
Олекминск 60.4°ш. 120.4°д. 226 м над ур. моря [Российская Федерация]

Дополнительная информация

В oтличие oт бoльшинства пoгoдных сайтoв мы публикуем пoдрoбную метеoинфoрмацию в детальнoм прoфессиoнальнoм фoрмате.

Характеристики температуры и влажнoсти вoздуха измеряются на высoте 2 м в тени вдали oт зданий и деревьев.
Скoрoсть ветра измеряется на высoте 10 м (на урoвне рoста челoвека скoрoсть ветра ниже в 1.5-2 раза). Если метеoстанция нахoдится в гoрoде или в лесу, тo скoрoсть ветра занижена на 2-4 м/с пo сравнению с oткрытым местoм. Скoрoсть ветра над акватoриями крупных рек и oзёр, а также на вершинах хoлмoв на 2-5 м/с выше, чем в oбычных услoвиях.
Атмoсфернoе давление в разных тoчках местнoсти мoжет значительнo oтличаться oт давления на метеoстанции, в зависимoсти oт услoвий рельефа (при пoдъёме на 10 м давление пoнижается примернo на 1 мм рт.ст.).